FW3030 Weather Reports


Display with metric or nautical units.
time (UTC)temp
F
wind
direction
speed
MPH
gust
MPH
rain 1hr
in
rain 24hr
in
rain mn
in
humidity
%
barometer
mb
20260901214602 82 216 1.0 4.0 0.00 0.00 0.00 47 1013.7
20260901213105 82 285 1.0 3.0 0.00 0.00 0.00 47 1013.7
20260901211604 82 0 1.0 6.0 0.00 0.00 0.00 45 1013.7
20260901210132 83 348 2.0 6.0 0.00 0.00 0.00 42 1013.8
20260901204608 83 240 1.0 5.0 0.00 0.00 0.00 43 1013.7
20260901203103 84 207 1.0 4.0 0.00 0.00 0.00 43 1013.8
20260901201608 83 242 1.0 4.0 0.00 0.00 0.00 45 1014.0
20260901200104 82 251 0.0 4.0 0.00 0.00 0.00 48 1014.1
20260901194606 81 288 0.0 3.0 0.00 0.00 0.00 51 1014.3
20260901193107 81 119 0.0 3.0 0.00 0.00 0.00 49 1014.5
20260901191610 81 0 0.0 3.0 0.00 0.00 0.00 50 1014.3
20260901190136 81 0 0.0 4.0 0.00 0.00 0.00 50 1014.3
20260901184607 81 0 0.0 3.0 0.00 0.00 0.00 53 1014.4
20260901183108 81 0 0.0 3.0 0.00 0.00 0.00 52 1014.6
20260901181606 81 348 1.0 3.0 0.00 0.00 0.00 54 1014.7
20260901180104 80 0 0.0 2.0 0.00 0.00 0.00 55 1014.8
20260901174602 80 0 0.0 2.0 0.00 0.00 0.00 54 1015.0
20260901173106 80 267 1.0 4.0 0.00 0.00 0.00 55 1015.1
20260901171636 79 153 1.0 3.0 0.00 0.00 0.00 57 1015.2
20260901170108 77 0 0.0 4.0 0.00 0.00 0.00 60 1015.2
20260901164618 76 0 1.0 4.0 0.00 0.00 0.00 63 1015.2
20260901163117 75 0 0.0 2.0 0.00 0.00 0.00 64 1015.4
20260901161608 74 0 0.0 2.0 0.00 0.00 0.00 65 1015.4
20260901154605 72 350 0.0 2.0 0.00 0.00 0.00 71 1015.5
20260901153106 71 0 0.0 1.0 0.00 0.00 0.00 73 1015.3
20260901151607 70 360 0.0 3.0 0.00 0.00 0.00 74 1015.3
20260901150103 68 311 0.0 2.0 0.00 0.00 0.00 78 1015.6
20260901144606 67 0 0.0 3.0 0.00 0.00 0.00 80 1015.4
20260901143102 65 0 0.0 3.0 0.00 0.00 0.00 87 1015.4
20260901141602 64 0 0.0 4.0 0.00 0.00 0.00 90 1015.5
20260901140105 63 210 1.0 4.0 0.00 0.00 0.00 92 1015.6
20260901134605 63 239 0.0 3.0 0.00 0.00 0.00 93 1015.5
20260901133109 62 0 0.0 1.0 0.00 0.00 0.00 93 1015.6
20260901131602 61 61 0.0 1.0 0.00 0.00 0.00 93 1015.3
20260901130107 59 0 0.0 0.0 0.00 0.00 0.00 92 1015.0
20260901124606 58 0 0.0 0.0 0.00 0.00 0.00 91 1014.9
20260901123101 58 0 0.0 1.0 0.00 0.00 0.00 91 1014.9
20260901121608 58 0 0.0 0.0 0.00 0.00 0.00 90 1014.7
20260901120103 58 0 0.0 0.0 0.00 0.00 0.00 89 1014.5
20260901114603 58 0 0.0 0.0 0.00 0.00 0.00 89 1014.3
20260901113104 58 0 0.0 0.0 0.00 0.00 0.00 89 1014.2
20260901111612 58 0 0.0 0.0 0.00 0.00 0.00 89 1014.1
20260901110113 58 0 0.0 0.0 0.00 0.00 0.00 88 1013.9
20260901104606 58 0 0.0 1.0 0.00 0.00 0.00 88 1013.8
20260901103107 59 0 0.0 0.0 0.00 0.00 0.00 88 1013.8
20260901101606 59 0 0.0 1.0 0.00 0.00 0.00 87 1013.9
20260901100105 59 0 0.0 1.0 0.00 0.00 0.00 87 1013.7
20260901094605 59 0 0.0 0.0 0.00 0.00 0.00 87 1013.7
20260901093103 60 0 0.0 0.0 0.00 0.00 0.00 87 1013.5
20260901091607 60 0 0.0 0.0 0.00 0.00 0.00 86 1013.5
20260901090116 60 0 0.0 0.0 0.00 0.00 0.00 86 1013.5
20260901084608 61 0 0.0 1.0 0.00 0.00 0.00 86 1013.6
20260901083112 61 0 0.0 0.0 0.00 0.00 0.00 86 1013.5
20260901081603 62 0 0.0 2.0 0.00 0.00 0.00 86 1013.3
20260901080114 62 0 0.0 2.0 0.00 0.00 0.00 85 1013.4
20260901074601 62 0 0.0 0.0 0.00 0.00 0.00 85 1013.4
20260901073102 62 0 0.0 0.0 0.00 0.00 0.00 84 1013.4
20260901071606 62 0 0.0 0.0 0.00 0.00 0.00 84 1013.6
20260901070106 63 0 0.0 2.0 0.00 0.00 0.00 83 1013.6
20260901064611 63 0 0.0 0.0 0.00 0.00 0.00 82 1013.7
20260901063141 63 0 0.0 0.0 0.00 0.00 0.00 82 1013.8
20260901061613 63 0 0.0 0.0 0.00 0.00 0.00 80 1013.9
20260901060104 64 0 0.0 0.0 0.00 0.00 0.00 79 1014.0
20260901054604 64 0 0.0 0.0 0.00 0.00 0.00 78 1013.9
20260901053116 65 0 0.0 0.0 0.00 0.00 0.00 77 1014.0
20260901051603 65 0 0.0 0.0 0.00 0.00 0.00 76 1014.0
20260901044607 67 0 0.0 0.0 0.00 0.00 0.00 74 1013.8
20260901043103 67 0 0.0 0.0 0.00 0.00 0.00 72 1013.8
20260901041606 68 0 0.0 0.0 0.00 0.00 0.00 70 1013.6
20260901040104 69 0 0.0 0.0 0.00 0.00 0.00 69 1013.5
20260901034559 70 0 0.0 0.0 0.00 0.00 0.00 67 1013.5
20260901033102 71 0 0.0 0.0 0.00 0.00 0.00 66 1013.4
20260901031602 72 0 0.0 0.0 0.00 0.00 0.00 64 1013.4
20260901030100 73 0 0.0 0.0 0.00 0.00 0.00 62 1013.3
20260901024603 74 0 0.0 1.0 0.00 0.00 0.00 60 1013.1
20260901023107 75 0 0.0 1.0 0.00 0.00 0.00 58 1013.0
20260901021602 76 0 0.0 0.0 0.00 0.00 0.00 56 1013.0
20260901020059 77 0 0.0 1.0 0.00 0.00 0.00 54 1012.9
20260901014600 78 0 0.0 0.0 0.00 0.00 0.00 52 1012.7
20260901013108 79 0 0.0 1.0 0.00 0.00 0.00 50 1012.6
20260901011604 81 0 0.0 0.0 0.00 0.00 0.00 48 1012.4
20260901010107 83 0 0.0 0.0 0.00 0.00 0.00 47 1012.4
20260901004603 84 0 0.0 2.0 0.00 0.00 0.00 45 1012.4
20260901003111 85 0 0.0 1.0 0.00 0.00 0.00 43 1012.3
20260901001603 86 0 0.0 2.0 0.00 0.00 0.00 42 1012.4
20260901000106 87 0 0.0 1.0 0.00 0.00 0.00 40 1012.3
20260831234602 88 0 0.0 2.0 0.00 0.00 0.00 39 1012.4
20260831233104 88 234 0.0 3.0 0.00 0.00 0.00 38 1012.4
20260831231614 88 314 0.0 3.0 0.00 0.00 0.00 39 1012.4
20260831230106 88 309 1.0 5.0 0.00 0.00 0.00 39 1012.4
20260831224605 88 0 1.0 4.0 0.00 0.00 0.00 40 1012.4
20260831223110 89 236 2.0 5.0 0.00 0.00 0.00 38 1012.3
20260831221605 89 254 1.0 5.0 0.00 0.00 0.00 38 1012.3
20260831220106 89 248 0.0 4.0 0.00 0.00 0.00 41 1012.3